Regional Weather Roundup
Issued by NWS New Orleans/Baton Rouge, LA

Home | Current Version | Previous Version | Text Only | Print | Product List | Glossary Off
Versions: 1 2 3 4 5 6 7 8 9 10 11 12 13 14 15 16 17 18 19 20 21 22 23 24 25 26 27 28 29 30 31 32 33 34 35 36 37 38 39 40 41 42 43 44 45 46 47 48 49 50

642
ASUS44 KLIX 211001
RWRLIX
NEW ORLEANS REGIONAL WEATHER ROUNDUP
NATIONAL WEATHER SERVICE NEW ORLEANS LA
400 AM CST FRI NOV 21 2014

NOTE: "FAIR" INDICATES FEW OR NO CLOUDS BELOW 12,000 FEET WITH NO
      SIGNIFICANT WEATHER AND/OR OBSTRUCTIONS TO VISIBILITY.
      SKY/WX - SKY CONDITION AND SIGNIFICANT WEATHER.
      TMP - AIR TEMPERATURE.     DP    - DEWPOINT TEMPERATURE.
      RH  - RELATIVE HUMIDITY.   PRES  - PRESSURE.
      HI  - HEAT INDEX.          WCI   - WIND CHILL INDEX.

*  THESE STATIONS ARE NOT NWS OR FAA STATIONS AND ARE NOT UNDER
   NWS QUALITY CONTROL.

LAZ038-040-048-061>063-065>067-069-211100-
SOUTHEAST LOUISIANA

CITY           SKY/WX    TMP DP  RH WIND       PRES   REMARKS
N.O. AUDUBON     N/A     50  47  88 MISG        N/A
N.O. INTL ARPT CLEAR     47  43  86 CALM      30.24S
N.O. LAKEFRONT CLEAR     51  47  86 E5        30.25R
N.O. DOWNTOWN*   N/A     55  45  67 CALM      30.24F
SLIDELL        CLEAR     39  36  89 CALM      30.25R
BATON ROUGE    PTCLDY    46  43  89 NE3       30.23R
BOOTHVILLE     CLEAR     54  50  86 E5        30.25S
BELLE CHASSE   CLEAR     42  39  89 CALM      30.24S
BOGALUSA*        N/A     40  37  91 CALM      30.28R
NEW ROADS*     NOT AVBL
GONZALES*      NOT AVBL
HAMMOND*       NOT AVBL
HOUMA*         MOCLDY    47  47  97 CALM      30.23S FOG
PORT FOURCHON* NOT AVBL

$$

MSZ070-080>082-211100-
SOUTHERN MISSISSIPPI

CITY           SKY/WX    TMP DP  RH WIND       PRES   REMARKS
MCCOMB         CLEAR     41  39  93 CALM      30.23F
GULFPORT       CLEAR     42  40  92 CALM      30.25S
BILOXI         CLEAR     44  44 100 E3        30.25S
PASCAGOULA     CLEAR     36  35  96 CALM      30.26S

$$

COASTAL OBSERVATIONS
LAKE AND NEARSHORE STATIONS

STATION/POSITION TIME  TEMP    WIND        PRES    WAVE
                       AIR SEA DIR/SP/G            HT/PER
                 (UTC) (F)     (DEG/KT/KT) (MB)    (FT/S)
PASCAGOULA       0900   48      50/  4/  5 1024.0
WAVELAND YACHT   0900   54     170/  4/  8 1022.7
GRAND ISLE       0900   62 58  130/  6/  9 1023.9
SOUTHWEST PASS   0900   61 73              1024.0
NEW CANAL        0900   52 53  170/  2/  3 1024.3
SHELL BEACH      0900   53 49  120/  3/  5 1023.8

OFFSHORE STATIONS

STATION/POSITION TIME  TEMP    WIND        PRES    WAVE
                       AIR SEA DIR/SP/G            HT/PER
                 (UTC) (F)     (DEG/KT/KT) (MB)    (FT/S)
64 S DAUPHIN ISL 0921   63 72  100/ 10/ 14 1025.0    2/ 5

$$




USA.gov is the U.S. government's official web portal to all federal, state and local government web resources and services.